Back to catalog

STARLINK-32135

AliveCommunicationsVLEO
NORAD 60277·PAYLOAD·🇺🇸 United States

Launched Jul 27, 2024 from Cape Canaveral Space Force Station

Loading…

Next Passes (next 24 hours)

TLE

FreshSource: CelesTrak SupGP

Epoch: Sep 14, 2026, 22:18 UTC

1 60277C 24131Y   26257.92965278  .00041443  00000+0  12244-2 0  2570
2 60277  53.1563 251.4129 0001374  84.1463 162.5933 15.34371782    13

Track STARLINK-32135 in real time with AllMySat

Download on the App Store